Flag for U.S.A. Weather past 2 weeks in Seattle, Washington, U.S.A.

Now
65 °F

Broken clouds.


Feels Like: 65 °F
Forecast: 53 / 65 °F
Wind: 7 mph from Southwest

Location: Seattle Boeing Field

Current Time: May 24, 2015 at 5:05:00 PM

Latest Report: May 24, 2015 at 3:53 PM


Visibility: 10 mi

Pressure: 30.06 "Hg

Humidity: 59%

Dew point: 50 °F

Location of SeattleLocation

Historic Weather in Seattle — Graph

°F

Seattle temperature yesterday

Maximum temperature yesterday: 63 °F (at 3:53 PM)
Minimum temperature yesterday: 56 °F (at 5:53 AM)
Average temperature yesterday: 60 °F

Past Weeks' High & Low Weather Summary

 TemperatureHumidityPressure
High80 °F (May 9, 4:53 PM)86% (May 13, 11:53 PM)30.19 "Hg (May 13, 11:53 PM)
Low53 °F (May 13, 10:53 PM)19% (May 9, 3:53 PM)29.80 "Hg (May 21, 6:53 PM)
Average61 °F66%29.98 "Hg
* Reported May 9 3:53 PM — May 24 3:53 PM, Seattle, Weather by CustomWeather, © 2015

Note: Actual official high and low records may vary slightly from our data, if they occured in-between our weather recording intervals... More about our weather records

Advertising

Seattle weather history for previous 24 hours

 ConditionsComfort  
Time TempWeatherWind HumidityBarometerVisibility
3:53 PM
Sun, May 24
65 °FBroken clouds.7 mph59%30.06 "Hg10 mi
2:53 PM65 °FMostly cloudy.3 mph59%30.07 "Hg10 mi
1:53 PM65 °FPartly sunny.8 mph59%30.09 "Hg10 mi
12:53 PM63 °FOvercast.7 mph60%30.11 "Hg10 mi
11:53 AM61 °FOvercast.6 mph67%30.13 "Hg10 mi
10:53 AM59 °FMostly cloudy.6 mph69%30.13 "Hg10 mi
9:53 AM57 °FMostly cloudy.5 mph74%30.14 "Hg10 mi
8:53 AM57 °FCloudy.6 mph74%30.15 "Hg10 mi
7:53 AM56 °FOvercast.5 mph77%30.16 "Hg10 mi
6:53 AM56 °FMostly cloudy.5 mph75%30.15 "Hg10 mi
5:53 AM56 °FMostly cloudy.5 mph75%30.15 "Hg10 mi
4:53 AM56 °FOvercast.6 mph75%30.15 "Hg10 mi
3:53 AM57 °FOvercast.5 mph74%30.16 "Hg10 mi
2:53 AM57 °FOvercast.6 mph74%30.16 "Hg10 mi
1:53 AM58 °FOvercast.No wind72%30.17 "Hg10 mi
12:53 AM59 °FOvercast.3 mph72%30.17 "Hg10 mi
11:53 PM
Sat, May 23
60 °FOvercast.5 mph69%30.17 "Hg10 mi
10:53 PM61 °FOvercast.5 mph70%30.17 "Hg10 mi
9:53 PM61 °FOvercast.No wind70%30.16 "Hg10 mi
8:53 PM62 °FOvercast.No wind67%30.15 "Hg10 mi
7:53 PM62 °FPartly sunny.3 mph67%30.15 "Hg10 mi
6:53 PM63 °FPartly sunny.3 mph65%30.15 "Hg10 mi
5:53 PM63 °FOvercast.6 mph63%30.16 "Hg10 mi
Weather by CustomWeather, © 2015

See weather overviewHow to use our weather pages